www.pogodaiklimat.ru

Погода и климат >> Архив погоды >> Индия >> Уттар-Прадеш >> Аллахабад


ПОГОДА в Аллахабаде

  • Прогноз погоды в Аллахабаде
  • Монитор погоды в Аллахабаде

АРХИВ ПОГОДЫ в Аллахабаде

Время (UTC), дата Ветер
(напр.,м/с)
 
Видим.   Явления Облачность Т
(С)
Тd
(С)
f
(%)
Тe
(С)
Тes
(С)
Комфортность P
(гПа)
Po
(гПа)
Тmin
(С)
Tmax
(С)
R
(мм)
R24
(мм)
S
(см)
18 12.06 штиль 0 2000 м дымка 6/3 600 м
[Sc Ac trans]
+30.4 +27.9 87 +50 +50 опасность
перегрева
1002.2 991.2
21 12.06 штиль 0 2000 м дымка 6/3 600 м
[Sc Ac trans]
+29.0 +17.3 49 +33 +33 очень
душно
1001.2 990.2 16
00 13.06 З 49 900 м 4/0 200 м
[Ac trans]
+28.0 +26.9 94 +44 +44 опасность
перегрева
1001.7 990.6
03 13.06 ЮЗ 1 4000 м мгла {гроза, дождь} 9/4 600 м
[Sc Ac trans]
+29.0 +24.7 78 +41 +45 опасность
перегрева
1002.1 991.1 +26.8 1
06 13.06 В 1 4000 м мгла 8/3 300 м
[Sc diur, vesp Ac trans]
+34.6 +27.8 68 +55 +65 опасность
перегрева
1000.2 989.4 70
09 13.06 ЮВ 2 4000 м мгла 6/3 300 м
[Sc diur, vesp Ac trans]
+37.2 +27.1 56 +55 +63 опасность
перегрева
996.5 985.8
12 13.06 ЮВ 1 4000 м мгла 8/1 300 м
[Sc diur, vesp Ac trans]
+35.2 +27.9 66 +56 +57 опасность
перегрева
996.9 986.1 +38.4 140
21 13.06 штиль 0 2000 м дымка 9/4 540 м
[Cb calv Ac trans]
+28.0 +25.2 85 +41 +41 опасность
перегрева
998.9 987.9 0.0
09 14.06 Ю 2 4000 м шквал {туман} 9/4 600 м
[Sc diur, vesp Ac trans]
+35.2 +27.9 66 +56 +60 опасность
перегрева
997.2 986.4
12 14.06 ЮВ 2 1000 м дымка {гроза, дождь} 10/5 200 м
[Cb calv As op]
+29.0 +24.7 78 +41 +42 опасность
перегрева
997.8 986.8 +35.6 0.3
15 14.06 СВ 4 2000 м гроза без осадков 10/5 300 м
[Cb calv As op]
+29.2 +26.3 84 +44 +44 опасность
перегрева
999.8 988.8 0.0
21 14.06 штиль 0 2000 м слаб. дождь 10/5 540 м
[Cb calv As op]
+27.4 +26.3 94 +42 +42 опасность
перегрева
996.1 985.1 0.8
00 15.06 ЮВ 1 2000 м дымка {гроза, дождь} 10/6 200 м
[Cb calv As op]
+25.8 +25.8 100 +38 +38 очень
душно
1000.2 989.1 45
03 15.06 Ю 1 2000 м дымка 9/5
[St Ac trans]
+26.4 +23.9 86 +36 +39 очень
душно
1001.4 917.2 +22.1 117
06 15.06 В 3 4000 м дымка {дождь} 8/5 300 м
[Cb calv Ac trans]
+27.0 +27.0 100 +42 +49 опасность
перегрева
1000.7 989.6 11
09 15.06 В 2 4000 м дымка 6/4 300 м
[Sc diur, vesp Ac trans]
+29.4 +27.8 91 +48 +56 опасность
перегрева
975.7 965.0 11
15 15.06 СВ 3 2000 м дымка 10/6 300 м
[Cb calv As op]
+27.6 +26.2 92 +42 +42 опасность
перегрева
999.3 988.2 0.0
18 15.06 штиль 0 2000 м дымка 9/4 540 м
[Cb calv Ac trans]
+30.0 +27.2 85 +48 +48 опасность
перегрева
1001.1 990.1 0.5
21 15.06 штиль 0 4000 м 4/0
[Ac trans]
+35.4 +20.2 41 +41 +41 опасность
перегрева
997.2 1000.0
03 16.06 СВ 2 1000 м слаб. дождь {гроза} 10/10 100 м
[Sc]
+26.6 +26.6 100 +41 +41 опасность
перегрева
999.6 988.5 +26.2 5
09 16.06 СВ 5 4000 м дымка 9/6 300 м
[Frnb Ac trans]
+29.4 +26.3 83 +45 +47 опасность
перегрева
999.2 988.2 0.0
12 16.06 З 3 500 м гроза с градом 10/6 200 м
[Cb calv As op]
+27.6 +26.5 94 +42 +43 опасность
перегрева
999.0 987.9 +29.6 7
21 16.06 СЗ 3 4000 м мгла ясно +35.0 +20.1 42 +41 +41 опасность
перегрева
995.4 984.6
03 17.06 0 слаб. морось {гроза, дождь} н/о +27.0 +26.2 95 +41 +54 опасность
перегрева
1002.2 991.1 +23.2 32
06 17.06 0 дымка {дождь} н/о +26.8 +26.8 100 +42 +71 опасность
перегрева
1002.3 991.2 52
09 17.06 0 дымка н/о +27.2 +25.8 92 +40 +61 опасность
солнечного
удара
1001.0 989.9 20
15 17.06 0 дымка н/о +24.8 +23.4 92 +33 +33 очень
душно
1000.5 989.3 8
18 17.06 0 дымка н/о +29.0 +26.2 85 +44 +44 опасность
перегрева
1001.8 990.8 0.0
21 17.06 0 дымка н/о +28.0 +26.3 91 +43 +43 опасность
перегрева
1000.7 989.6 0.0
00 18.06 С 3 4000 м слаб. дождь {гроза} 10/6 300 м
[Cb calv As op]
+24.2 +24.2 100 +33 +33 очень
душно
1001.7 990.5 29
03 18.06 СВ 3 4000 м дымка {дождь} 9/5 300 м
[Sc diur, vesp Ac trans]
+25.2 +24.6 96 +35 +38 очень
душно
1002.7 991.5 +22.8 33
06 18.06 В 3 4000 м дымка {дождь} 6/4 300 м
[Sc diur, vesp Ac trans]
+29.4 +26.6 85 +45 +54 опасность
перегрева
1001.8 990.8
09 18.06 В 3 4000 м мгла 4/1 600 м
[Sc diur, vesp Ac trans]
+33.0 +27.2 72 +52 +62 опасность
перегрева
999.2 1090.5
12 18.06 В 2 4000 м мгла 8/5 300 м
[Sc diur, vesp Ac trans]
+31.6 +26.0 72 +47 +48 опасность
перегрева
998.6 987.7 +33.6 110
15 18.06 С 2 2000 м мгла 4/1 600 м
[Sc Ac trans]
+29.4 +25.4 79 1000.2
18 18.06 Ю 2 2000 м дымка 6/4 540 м
[Sc Ac trans]
+30.6 +28.7 90 +53 +53 опасность
перегрева
1002.5 991.5
21 18.06 Ю 46 200 м мгла 4/4 300 м
[]
+31.4 +26.1 74 +47 +47 опасность
перегрева
998.5 987.6
00 19.06 С 3 4000 м дымка 8/4 300 м
[Sc diur, vesp Ac trans]
+27.0 +23.8 83 +37 +37 очень
душно
1001.4 990.3 20
06 19.06 Ю 2 4000 м дымка 6/5 300 м
[Sc diur, vesp Ac trans]
+32.4 +27.5 75 +51 +61 опасность
перегрева
1001.4 990.5
12 19.06 штиль 0 4000 м 5/3 900 м
[St Ac trans]
+32.6 +27.4 74 +51 +53 опасность
перегрева
997.7 986.8 +35.8

 

Местоположение метеостанции Аллахабад (Уттар-Прадеш, Индия): широта 25.45 долгота 81.73 высота над уровнем моря 98 м.

В архиве по умолчанию представлена погода в Аллахабаде за последнюю неделю. Архивные данные за месяц целиком и за предыдущие месяцы, начиная с января 2011 года, Вы можете получить, выбрав интересующий диапазон дат из раскрывающегося списка и нажав кнопку "Ввод!".


*Определитесь, кто Вы:
робот инопланетянин человек

Внимание! Время в таблицах - всемирное. Для получения местного времени необходимо прибавить поправку, которая равна 5.5 ч.

Смотрите также архив погоды в соседних городах и на ближайших метеорологических станциях:

Погода в Ферсатгиндже (Уттар-Прадеш, Индия) (96 км)
Погода в Султанпуре (Уттар-Прадеш, Индия) (97 км)
Погода в Реве (Мадхья-Прадеш, Индия) (111 км)
Погода в Варанаси аэропорту (Уттар-Прадеш, Индия) (113 км)
Погода в Сидхи (Мадхья-Прадеш, Индия) (115 км)
Погода в Варанаси (Уттар-Прадеш, Индия) (131 км)
Погода в Сатне (Мадхья-Прадеш, Индия) (133 км)
Погода в Банде (Уттар-Прадеш, Индия) (137 км)
Погода в Лакхнау (Уттар-Прадеш, Индия) (168 км)
Погода в Хамирпуре (Уттар-Прадеш, Индия) (168 км)

Пояснения к столбцам:

Ветер - указаны скорость ветра в м/с - средняя за 10 мин, порывы в срок и между сроками (в фигурных скобках) и направление, откуда дует ветер: С - северный, СВ - северо-восточный, В - восточный, ЮВ - юго-восточный, Ю - южный, ЮЗ - юго-западный, З - западный, СЗ - северо-западный.
Видимость - горизонтальная дальность видимости в метрах или километрах. При видимости от 1 до 10 км при отсутствии осадков обычно наблюдается дымка, при ухудшении видимости до 1 км и менее - туман. В сухую погоду видимость может ухудшаться дымом, пылью или мглою.
Явления - указаны атмосферные явления, наблюдавшиеся в срок или в последний час перед сроком; фигурными скобками обозначены явления, наблюдавшиеся между сроками (за 1-3 часа до срока); квадратными скобками обозначены град или гололедные отложения с указанием их диаметра в мм.
Облачность - указаны через наклонную черту общая и нижняя облачность в баллах и высота нижней границы облаков в метрах; квадратными скобками обозначены формы облаков: Ci - перистые, Cs - перисто-слоистые, Cc - перисто-кучевые, Ac - высококучевые, As - высокослоистые, Sc - слоисто-кучевые, Ns - слоисто-дождевые, Cu - кучевые, Cb - кучево-дождевые. Подробнее классификацию облаков см. в Атласе облаков (PDF).
T - Температура воздуха - температура, измеренная на высоте 2 м над землей.
Td - Температура точки росы - температура, при понижении до которой содержащийся в воздухе водяной пар достигнет насыщения.
f - Относительная влажность воздуха - влажноcть воздуха, измеренная на высоте 2 м над землей.
Te - Эффективная температура - температура, которую ощущает одетый по сезону человек в тени. Характеристика душности погоды. При расчете учитывается влияние влажности воздуха и скорости ветра на теплоощущения человека.
Tes - Эффективная температура на солнце - температура, которую ощущает человек, с поправкой на солнечный нагрев. Характеристика знойности погоды. Зависит от высоты солнца над горизонтом, облачности и скорости ветра. Ночью, в пасмурную погоду, а также при ветре 12 м/с и более поправка равна нулю.
P - Атмосферное давление - приведенное к уровню моря атмосферное давление.
Po - Атмосферное давление - измеренное на уровне метеостанции атмосферное давление.
Tmin - Минимальная температура - минимум температуры воздуха на высоте 2 м над землей.
Tmax - Максимальная температура - максимум температуры воздуха на высоте 2 м над землей.
R - Количество осадков - Количество выпавших осадков за период времени, мм. При наведении курсора мыши на число - период времени, за который выпало указанное количество осадков.
R24 - Количество осадков - Количество выпавших осадков за 24 часа, мм.
S - Снежный покров - Высота снежного покрова, см. При наведении курсора мыши на число - состояние снежного покрова и степень покрытия местности в баллах.